Theta_e
333 336 342 349 354 355 339 339 338 340 343 342 343 341 340 339 346 352 338 333 342 344 340 341 341 341 342 343 340 342 341 339 335 333 332 331 328 328 329 328 327 327 328 328 327 327 328 328 328
335 344 347 350 354 343 340 340 341 342 343 343 339 340 341 342 340 339 335 333 340 343 343 339 338 340 342 339 336 340 339 336 334 332 332 327 327 328 327 326 326 327 328 328 328 328 328 329 328
337 343 351 354 354 341 341 341 342 342 342 343 341 336 339 340 341 339 333 335 340 340 343 335 328 338 341 338 336 338 336 336 333 332 330 327 328 328 328 328 328 329 330 330 330 330 330 331 332
344 347 350 352 336 339 340 339 341 344 344 343 342 340 336 335 335 332 333 338 339 340 340 326 327 334 334 336 336 336 336 334 333 331 328 328 328 328 329 329 329 329 329 331 330 329 329 329 329
346 348 352 345 339 338 338 339 340 343 343 343 342 339 335 332 332 333 336 340 339 340 339 334 327 328 333 333 330 332 331 334 333 330 328 328 328 327 328 329 329 329 330 329 329 329 328 327 322
344 345 347 345 344 339 340 341 343 344 346 347 343 341 337 334 336 337 338 340 339 340 339 338 329 325 327 326 324 323 328 332 331 330 328 328 327 328 329 330 330 330 329 330 328 327 321 319 318
344 346 348 342 347 344 341 343 344 345 345 346 344 345 339 339 338 338 339 340 339 341 343 342 340 333 324 320 318 322 328 329 332 329 326 324 324 325 326 329 331 330 330 327 320 318 317 316 317
340 345 349 345 346 344 341 342 341 344 344 342 344 347 343 340 338 338 339 341 342 340 342 343 341 337 334 326 319 322 326 325 324 322 322 323 322 323 324 326 328 329 323 318 317 317 317 315 317
341 350 352 349 343 344 342 342 342 345 346 343 337 342 341 338 338 339 340 341 343 342 341 343 344 341 338 331 324 321 322 321 322 325 325 323 327 331 332 330 329 320 319 316 319 318 317 321 320
345 350 345 340 340 341 342 343 342 348 346 343 341 338 337 338 339 341 341 342 343 343 342 341 340 340 338 333 330 330 330 330 331 331 330 331 329 326 329 325 324 324 321 324 323 325 324 322 325
341 340 340 340 339 341 341 342 345 345 347 343 341 339 340 341 342 342 341 342 343 344 343 342 341 339 338 335 336 336 336 335 332 331 331 332 329 327 326 326 326 327 326 327 326 327 326 326 326
340 338 340 340 341 342 342 342 346 346 344 342 340 340 342 343 342 342 342 343 343 344 344 344 342 340 338 336 336 338 337 335 334 333 332 331 331 329 325 328 326 327 326 326 327 325 325 325 326
339 338 340 341 341 339 341 343 345 345 343 339 341 341 342 343 343 342 343 343 342 343 345 347 345 343 340 338 337 337 336 336 334 333 332 332 331 329 329 328 327 327 326 327 326 325 325 326 326
338 344 342 341 340 341 345 345 346 347 343 340 341 342 343 344 343 342 340 336 333 334 338 342 346 343 342 340 339 338 337 337 336 334 333 332 332 330 331 329 328 328 327 327 326 324 325 326 325
342 344 343 342 340 340 343 344 349 346 344 343 342 342 342 341 341 341 336 336 337 337 338 342 348 346 345 343 340 339 337 338 337 335 333 331 333 333 332 331 328 329 328 328 327 326 326 326 325
341 340 346 342 340 342 344 347 343 346 346 345 344 343 342 343 340 338 338 338 337 341 342 343 347 348 346 344 343 340 338 338 338 335 333 333 333 334 334 332 330 330 326 328 328 326 326 326 326
341 345 343 342 340 338 343 352 347 346 346 346 345 344 342 341 340 339 339 337 338 343 345 346 348 349 348 347 344 341 340 339 340 337 334 333 334 334 332 332 331 330 328 327 327 328 328 327 327
341 342 340 339 340 341 342 348 346 344 343 344 346 342 341 342 343 341 339 337 339 343 346 348 350 349 349 347 345 343 341 340 340 339 335 334 333 333 333 333 332 330 329 327 330 328 329 327 327
335 335 337 340 340 343 343 343 346 344 343 343 341 342 342 343 344 341 339 337 339 342 345 349 351 350 349 348 346 344 343 341 340 337 336 334 333 334 334 334 334 331 328 328 331 329 330 328 329
334 336 337 338 335 340 342 344 344 345 344 343 343 343 342 344 345 343 341 340 339 341 343 345 349 350 348 346 345 344 340 339 338 337 335 333 333 333 335 335 333 331 329 329 328 330 330 331 328
335 335 334 335 334 337 340 348 346 342 341 344 342 342 344 342 342 346 344 342 340 340 342 344 345 347 347 345 342 339 339 338 337 336 336 333 333 333 334 336 335 333 329 328 330 330 330 330 329
336 334 333 333 339 344 342 355 352 348 345 344 346 348 342 341 342 342 342 347 344 341 342 342 344 345 347 344 342 339 339 337 336 337 335 333 333 333 333 335 335 333 331 329 331 331 328 330 332
335 333 333 339 338 343 345 344 351 342 341 340 343 340 340 339 337 337 339 340 344 346 343 342 344 345 345 343 341 343 338 338 337 336 335 335 334 333 334 334 335 334 332 330 330 329 330 330 330
334 336 339 343 344 351 346 347 354 349 346 342 341 335 335 336 337 338 338 338 340 346 345 343 344 345 346 344 344 342 341 340 339 336 337 336 335 335 335 336 335 334 334 332 332 332 329 330 330
335 339 340 344 355 349 344 346 349 343 341 341 335 336 336 336 336 338 340 338 340 341 342 344 344 345 345 344 344 343 341 340 340 339 336 338 335 336 337 336 334 335 333 332 333 332 331 331 329
333 335 340 345 343 340 342 351 346 341 338 339 335 337 337 337 337 336 339 337 336 338 341 340 342 344 344 343 343 342 341 341 340 339 337 338 337 336 336 335 333 335 335 333 332 332 332 331 331
334 334 336 343 337 341 348 348 346 341 343 342 339 339 339 339 337 335 337 336 334 337 340 339 339 342 344 345 343 342 341 340 339 339 337 338 337 337 336 334 335 336 335 335 334 333 332 331 330
333 335 341 339 348 346 349 350 352 345 345 344 343 340 340 339 335 333 335 337 335 334 336 339 339 341 345 343 342 342 341 341 340 339 338 338 337 337 337 337 336 337 336 335 333 333 332 331 330
334 336 339 342 345 345 345 341 343 341 341 342 341 340 340 338 334 332 334 335 337 336 334 339 339 344 343 342 344 342 342 341 339 339 338 339 336 339 336 338 338 337 335 335 333 333 332 333 331
336 338 337 340 345 345 346 345 340 340 341 339 339 341 341 337 335 333 333 335 338 336 336 340 339 340 340 339 339 340 340 341 340 338 340 339 338 337 335 338 338 337 336 336 335 331 330 331 327
Wind_Speed
14 9 8 10 6 7 15 16 14 14 15 10 6 16 18 16 11 9 14 13 22 16 11 11 10 9 8 7 5 6 6 4 4 4 5 5 5 5 5 6 6 6 6 7 7 7 6 5 4
7 12 16 6 9 5 12 17 13 10 10 12 16 17 15 15 15 15 14 14 16 13 14 11 11 9 8 6 5 7 5 4 3 3 4 4 5 5 6 7 7 7 8 8 8 7 7 6 5
12 13 10 13 7 1 13 14 9 12 9 11 22 18 12 10 17 13 17 16 15 16 15 10 11 10 8 6 6 6 5 5 4 3 3 4 4 5 6 7 7 7 7 7 7 7 7 6 5
8 8 8 13 8 10 12 7 3 14 11 12 18 13 12 9 14 18 18 16 17 15 14 12 11 10 8 7 6 5 5 5 5 4 3 3 2 3 4 5 6 7 7 7 7 6 7 7 7
21 3 3 7 15 3 10 7 4 7 13 16 18 17 15 17 18 18 18 13 15 20 15 14 12 10 8 7 6 6 6 7 6 5 4 4 2 1 2 3 4 5 7 8 7 6 5 6 6
6 5 8 6 21 8 9 6 8 20 17 20 19 17 14 18 18 16 14 13 13 19 19 14 12 11 9 8 6 7 7 8 6 6 5 4 3 3 3 2 3 4 5 7 7 7 6 5 5
13 11 3 16 9 5 9 14 14 10 8 9 21 10 11 15 17 16 14 12 13 18 18 15 13 11 10 9 8 8 8 7 6 5 4 5 5 6 6 5 4 4 4 5 5 6 6 5 3
10 5 16 3 11 5 3 9 11 10 7 8 23 12 12 19 17 14 14 12 12 12 18 16 15 12 10 10 9 9 8 7 5 3 3 6 7 9 5 3 5 5 6 5 4 4 3 2 0
25 4 11 26 12 14 10 8 11 31 36 17 12 19 19 16 16 15 14 13 11 12 10 18 18 16 15 14 11 9 8 6 5 4 2 6 10 11 7 5 8 7 7 3 2 3 2 3 1
7 8 11 7 11 7 9 13 9 16 22 2 8 18 18 15 14 13 11 13 15 14 12 11 9 15 17 15 12 9 7 5 4 6 3 8 4 1 5 6 2 0 1 1 2 5 7 9 9
4 5 13 11 6 6 11 11 19 11 12 16 12 17 15 14 10 13 12 10 13 15 16 14 13 9 9 13 9 12 12 10 7 4 4 5 3 1 9 10 8 4 5 4 7 10 11 5 6
7 7 7 10 4 10 13 9 14 10 11 19 16 16 13 12 9 10 10 13 11 20 22 16 16 16 9 9 7 11 8 7 9 9 2 1 3 3 4 2 4 6 4 5 4 7 6 1 4
13 9 13 2 11 9 3 10 7 10 9 4 17 12 12 10 13 10 6 2 6 5 20 18 18 20 17 14 8 6 8 7 9 4 5 2 4 3 4 3 6 4 4 5 6 4 4 4 5
18 29 31 19 5 11 6 13 2 7 8 7 11 12 11 11 3 4 1 8 8 9 5 3 18 22 20 15 10 10 10 8 8 6 10 6 6 4 3 5 2 4 4 6 4 4 3 6 3
28 19 5 32 14 11 16 18 13 2 7 11 10 5 2 5 12 6 6 9 10 8 3 5 17 21 20 19 16 13 11 11 11 9 12 9 7 5 7 5 3 4 2 6 5 3 4 7 4
10 11 7 28 18 9 16 6 31 18 9 9 9 10 7 5 6 13 11 6 6 4 1 9 13 21 24 21 18 15 15 13 11 11 13 9 9 6 6 8 5 2 3 7 4 3 7 5 4
3 7 12 22 27 27 2 14 23 16 8 10 8 6 8 7 5 10 5 7 4 3 1 7 10 21 20 17 16 16 16 15 9 12 13 13 11 11 9 8 2 3 5 5 5 5 3 9 5
12 20 19 7 7 23 7 18 14 9 10 8 7 7 9 8 12 13 5 5 5 4 4 6 10 12 19 18 16 14 16 12 11 11 14 15 11 11 10 7 6 2 8 5 2 2 8 8 6
14 16 16 9 13 17 12 10 6 15 8 8 5 9 7 7 15 12 6 5 5 4 5 7 9 10 13 13 14 15 17 14 10 11 13 14 11 12 13 8 8 5 6 3 2 3 10 10 7
14 16 14 12 13 7 10 11 16 22 19 8 11 10 9 9 11 13 12 7 3 5 4 5 7 10 12 14 14 16 16 15 15 10 13 14 11 12 10 10 8 8 4 7 5 5 11 11 6
16 13 15 17 20 5 14 15 11 6 24 23 12 5 10 2 3 10 11 12 12 11 7 7 8 10 12 14 12 7 2 2 1 7 10 13 14 13 14 10 10 4 8 7 8 6 7 13 15
14 19 20 19 18 10 20 4 7 9 13 21 21 35 11 8 9 6 6 16 15 15 13 10 10 10 11 13 9 9 7 9 13 10 13 16 19 18 15 15 13 12 8 7 7 7 9 7 14
15 18 15 12 11 7 9 1 3 5 6 23 15 7 4 5 7 5 3 5 10 17 14 11 10 9 7 10 14 5 10 13 12 6 11 10 18 16 15 15 15 14 13 10 10 11 7 9 10
11 14 2 10 4 7 6 8 3 9 9 18 7 5 2 4 8 13 18 18 18 9 10 10 13 9 7 7 8 11 9 7 10 6 12 10 13 17 17 17 14 15 14 14 13 12 12 12 13
10 14 9 4 2 5 8 8 8 17 16 23 10 10 4 6 13 12 14 15 18 15 16 7 14 13 9 7 8 9 11 11 13 11 14 15 16 16 21 18 17 19 19 18 17 14 15 13 15
13 13 7 14 10 14 7 2 3 14 21 23 5 8 5 10 9 8 13 13 12 7 10 9 5 12 10 11 10 11 12 13 13 14 17 16 18 11 6 13 16 18 18 17 17 17 17 16 18
7 10 13 15 14 4 8 8 11 6 17 24 12 11 8 6 5 9 16 14 13 11 10 10 9 2 5 6 3 6 11 15 16 15 13 17 16 13 11 21 17 16 17 18 19 21 20 19 17
12 9 7 5 11 7 7 6 6 9 20 14 24 12 9 3 10 7 12 15 12 13 15 14 11 7 11 9 6 6 7 12 13 13 14 14 13 14 11 9 10 15 16 17 18 19 21 21 20
4 4 1 3 3 2 2 6 6 4 5 14 25 5 8 8 8 8 11 13 13 13 14 13 11 15 9 4 2 4 4 8 10 10 11 11 12 13 13 12 11 13 14 17 18 19 20 16 14
10 13 12 4 5 4 3 3 13 19 20 24 16 8 9 4 8 10 10 12 16 14 12 12 14 13 10 9 7 3 6 9 6 8 10 9 10 10 12 12 14 14 15 15 16 18 15 9 21
Wind_Direction
271 265 238 260 251 275 71 72 60 57 74 77 65 64 68 43 24 94 104 103 102 111 126 128 134 133 126 131 113 118 128 112 98 84 72 59 62 64 56 39 30 25 32 36 28 20 23 25 26
270 251 239 270 266 289 71 80 65 74 130 122 54 66 76 71 88 113 112 118 111 130 140 134 134 134 139 139 135 127 125 110 97 80 63 54 71 63 55 54 53 46 38 34 34 31 27 22 16
262 247 259 236 214 357 81 91 114 110 87 75 91 59 68 100 98 97 126 123 122 118 127 143 136 137 142 141 128 130 129 128 120 94 63 57 64 68 65 59 55 47 41 30 20 14 10 7 2
271 227 249 265 61 39 80 107 118 136 107 101 106 84 85 85 99 119 138 125 141 124 128 136 133 137 140 138 134 140 143 140 141 135 122 106 85 64 56 48 39 28 24 21 16 10 358 347 341
249 341 302 291 99 44 97 110 303 112 115 93 103 106 99 95 112 131 140 151 124 128 134 139 139 140 141 142 140 146 152 154 150 148 149 148 150 74 39 16 15 13 8 3 3 5 355 337 331
266 143 230 334 8 145 107 82 49 93 38 32 112 105 109 125 130 140 149 144 141 138 141 150 148 146 148 145 147 145 147 152 153 155 165 184 209 232 244 265 306 331 344 346 340 336 337 323 315
247 335 355 100 327 313 76 101 69 49 87 116 94 114 133 152 135 146 157 148 141 140 140 150 151 155 154 151 151 148 149 151 156 167 195 216 229 234 242 244 259 295 316 321 330 331 336 330 309
57 53 354 339 173 30 94 91 99 99 101 86 131 134 151 127 150 150 155 156 158 163 148 157 161 165 168 162 155 152 153 158 161 171 220 233 236 237 236 244 245 280 293 311 315 319 334 358 33
56 56 218 247 110 173 222 120 82 62 32 20 51 103 117 135 156 162 156 170 169 163 179 168 175 172 185 170 160 154 159 163 163 163 59 242 250 245 208 206 233 286 288 283 335 351 245 200 122
108 220 230 22 28 14 40 101 125 97 122 281 294 100 119 146 161 165 180 184 176 176 195 195 184 167 167 159 169 166 192 190 228 232 298 301 234 185 185 249 239 351 307 209 296 325 304 268 254
357 71 18 46 353 354 62 67 93 83 128 180 146 125 139 150 177 180 207 175 192 212 185 189 178 166 175 163 149 195 190 180 176 189 220 333 327 201 260 230 221 298 261 275 286 299 310 345 320
211 78 65 49 27 34 31 78 96 91 65 184 128 136 149 175 178 208 195 190 231 196 201 193 180 175 183 170 176 174 189 176 198 174 177 109 251 314 314 342 280 274 103 300 288 316 352 295 315
325 38 27 117 72 30 309 54 76 91 103 101 126 150 177 167 197 194 181 215 268 242 197 191 185 175 175 182 202 195 214 181 174 162 190 200 259 229 285 12 305 336 335 335 331 323 308 301 232
23 37 8 335 14 92 54 26 13 110 140 158 138 187 175 144 42 46 354 27 6 345 287 250 165 172 168 174 209 195 213 210 192 205 188 177 226 239 290 252 286 296 320 327 328 2 298 296 299
82 64 281 284 279 108 78 26 305 48 189 157 193 181 166 178 167 160 83 58 28 360 308 181 169 176 171 183 194 201 210 216 199 208 188 185 224 255 272 259 295 270 290 311 318 295 242 257 243
46 4 131 274 271 147 99 204 250 253 177 172 201 189 182 166 252 130 111 94 42 351 305 196 186 181 177 183 191 204 214 228 206 207 200 208 208 231 261 260 240 188 322 277 292 290 298 270 280
275 223 199 234 350 324 90 180 220 187 194 159 185 181 204 169 135 108 123 106 78 42 357 175 187 171 177 183 188 208 224 215 218 211 210 200 193 217 218 275 242 44 275 289 297 333 324 313 272
228 237 234 110 212 322 48 104 136 146 163 175 192 176 169 225 169 128 161 112 109 99 117 177 191 185 181 183 195 208 232 219 224 217 223 211 190 218 209 256 230 242 277 275 117 346 322 301 309
312 320 348 112 154 191 60 89 150 164 144 151 187 175 210 216 131 137 151 145 134 139 158 179 183 186 176 178 188 223 219 213 221 237 223 210 198 225 212 231 229 213 258 270 339 286 277 274 251
291 309 346 308 1 11 101 64 41 29 322 183 203 170 240 199 154 149 166 158 181 163 187 187 193 187 192 205 206 222 219 220 213 225 229 213 213 224 225 218 251 209 254 221 230 252 293 302 255
317 318 346 332 325 330 12 59 51 50 293 316 325 222 174 299 54 167 184 165 173 174 182 198 202 195 203 221 215 239 335 60 220 262 233 203 218 226 228 224 224 259 220 254 219 228 263 294 319
308 347 331 329 360 46 1 67 81 238 283 320 93 256 179 141 184 164 186 186 182 180 178 190 194 199 211 230 255 209 218 239 237 246 232 225 222 221 231 226 225 229 235 240 223 234 244 287 293
315 322 319 21 10 350 352 24 257 306 249 246 266 100 109 208 133 183 149 124 162 172 164 183 188 194 217 216 248 243 220 264 270 255 284 220 207 213 221 235 220 222 231 237 254 242 233 250 276
301 288 227 51 26 340 205 175 270 228 235 254 167 97 206 228 148 78 53 51 47 122 151 164 172 182 209 231 245 263 292 268 290 274 285 238 225 218 223 227 224 223 225 233 250 244 237 242 256
237 299 317 270 38 237 238 233 185 221 241 278 157 165 123 22 59 64 57 36 58 40 30 355 168 169 192 221 239 250 254 262 275 269 268 269 255 223 211 226 221 223 226 233 240 250 244 243 246
317 299 310 321 327 350 177 97 232 275 306 288 161 121 81 55 55 68 86 52 41 53 51 13 55 161 187 206 220 237 250 245 255 255 250 263 261 257 215 226 222 228 233 238 243 249 248 244 247
321 319 345 333 289 326 68 4 306 316 277 282 182 116 102 95 96 70 95 76 49 56 93 46 26 114 129 100 168 253 253 245 253 258 275 256 252 257 262 228 217 230 237 239 244 247 242 246 251
246 294 329 335 316 19 145 207 228 188 237 328 337 136 115 197 78 68 89 91 60 39 53 52 11 49 71 32 344 312 287 270 264 262 266 253 255 263 267 222 227 238 247 255 258 255 253 247 245
197 230 253 301 314 12 294 125 125 93 161 273 248 148 138 96 61 62 84 77 75 48 29 55 21 71 49 4 280 287 315 298 273 269 274 256 257 261 248 251 247 246 252 252 253 247 249 255 258
29 336 302 311 336 219 213 166 191 181 207 224 249 134 81 54 74 67 63 63 80 60 43 55 46 36 9 350 311 66 322 324 319 305 267 263 248 252 250 257 253 251 249 247 258 256 253 266 263